Location: Cheyres
(46.8153°N, 6.7877°E)
Time: 01:57:33
(UTC+00:00)

Tiros 1 - Pass Details

Date: 02 June 2022
Orbit: 629 x 663 km, 48.4° (Epoch: 05 July)

Event Time Altitude Azimuth Distance (km) Brightness Sun altitude
Rises 21:27:49 0° 227° (SW) 2,905 10.4 -15.5°
Reaches altitude 10° 21:30:12 10° 221° (SW) 1,999 9.5 -15.7°
Maximum altitude 21:34:33 44° 150° (SSE) 874 7.3 -16.1°
Drops below altitude 10° 21:38:56 10° 78° (ENE) 2,011 9.5 -16.4°
Sets 21:41:20 0° 72° (ENE) 2,924 10.4 -16.6°
